Home > Weather > Astrakhan > Past weeks

Flag for Russia Past Weather in Astrakhan, Russia — Yesterday and Last 2 Weeks

Now
73 °F

Scattered clouds.


Feels Like: 76 °F
Forecast: 62 / 83 °F
Wind: 10 mph from North

Location: Astrakhan

Current Time: May 25, 2016 at 3:14:44 PM

Latest Report: May 25, 2016 at 2:30 PM


Visibility: N/A

Pressure: 29.68 "Hg

Humidity: 65%

Dew Point: 61 °F

Location of AstrakhanLocation

Past Weather in Astrakhan — Graph

°F

Astrakhan Temperature Yesterday

Maximum temperature yesterday: 81 °F (at 2:30 PM)
Minimum temperature yesterday: 64 °F (at 10:30 PM)
Average temperature yesterday: 72 °F

High & Low Weather Summary for the Past Weeks

 TemperatureHumidityPressure
High81 °F (May 24, 2:30 PM)100% (May 13, 8:30 AM)30.15 "Hg (May 13, 8:30 AM)
Low55 °F (May 14, 3:30 AM)29% (May 10, 1:30 PM)29.68 "Hg (May 19, 4:30 PM)
Average67 °F68%29.87 "Hg
* Reported May 10 1:00 PM — May 25 1:30 PM, Astrakhan, Weather by CustomWeather, © 2016

Note: Actual official high and low records may vary slightly from our data, if they occured in-between our weather recording intervals... More about our weather records

Advertising

Astrakhan Weather History for the Previous 24 Hours

Scroll right to see more
 ConditionsComfort  
Time TempWeatherWind HumidityBarometerVisibility
1:30 PM
Wed, May 25
70 °FScattered clouds.10 mph78%29.68 "HgN/A
1:00 PM68 °FScattered clouds.8 mph83%29.71 "HgN/A
12:30 PM70 °FSprinkles. Scattered clouds.13 mph69%29.71 "HgN/A
12:00 PM72 °FPassing clouds.10 mph61%29.71 "HgN/A
11:30 AM72 °FPassing clouds.13 mph65%29.68 "HgN/A
11:00 AM70 °FPassing clouds.10 mph69%29.71 "HgN/A
10:30 AM70 °FPassing clouds.10 mph73%29.68 "HgN/A
10:00 AM70 °FPassing clouds.10 mph69%29.71 "HgN/A
9:30 AM70 °FPassing clouds.1 mph69%29.71 "HgN/A
9:00 AM70 °FPassing clouds.3 mph69%29.68 "HgN/A
8:30 AM68 °FPassing clouds.1 mph73%29.71 "HgN/A
8:00 AM68 °FSunny.No wind78%29.71 "Hg10 mi
7:30 AM68 °FPassing clouds.3 mph73%29.68 "HgN/A
7:00 AM66 °FPassing clouds.6 mph78%29.68 "HgN/A
6:30 AM64 °FPassing clouds.8 mph78%29.68 "HgN/A
6:00 AM64 °FScattered clouds.6 mph83%29.68 "HgN/A
5:30 AM64 °FPartly sunny.8 mph83%29.71 "HgN/A
5:00 AM64 °FPassing clouds.1 mph94%29.71 "Hg4 mi
4:30 AM63 °FPassing clouds.No wind94%29.68 "Hg4 mi
4:00 AM61 °FFog.3 mph94%29.68 "Hg3 mi
3:30 AM63 °FPassing clouds.No wind88%29.68 "Hg5 mi
3:00 AM64 °FPassing clouds.6 mph88%29.68 "Hg5 mi
2:30 AM64 °FClear.1 mph88%29.68 "Hg5 mi
2:00 AM66 °FClear.6 mph83%29.68 "Hg10 mi
1:30 AM66 °FClear.3 mph83%29.68 "Hg10 mi
1:00 AM66 °FClear.No wind88%29.68 "Hg5 mi
12:30 AM66 °FClear.3 mph88%29.68 "Hg5 mi
12:00 AM64 °FClear.3 mph88%29.68 "Hg5 mi
11:30 PM
Tue, May 24
66 °FClear.3 mph88%29.71 "Hg5 mi
11:00 PM66 °FClear.3 mph88%29.71 "Hg5 mi
10:30 PM64 °FClear.3 mph88%29.71 "Hg5 mi
10:00 PM66 °FClear.6 mph83%29.71 "Hg10 mi
9:30 PM66 °FClear.6 mph83%29.71 "Hg10 mi
9:00 PM66 °FClear.6 mph83%29.71 "Hg10 mi
8:30 PM68 °FClear.6 mph78%29.71 "Hg10 mi
8:00 PM70 °FSunny.8 mph78%29.68 "Hg10 mi
7:30 PM70 °FSunny.10 mph73%29.68 "Hg10 mi
7:00 PM72 °FSunny.10 mph69%29.68 "Hg10 mi
6:30 PM72 °FSunny.10 mph69%29.68 "Hg10 mi
6:00 PM72 °FSunny.13 mph69%29.68 "Hg10 mi
5:30 PM73 °FPassing clouds.13 mph65%29.68 "HgN/A
5:00 PM75 °FSunny.15 mph57%29.68 "Hg10 mi
4:30 PM75 °FSunny.13 mph61%29.68 "Hg10 mi
4:00 PM77 °FPassing clouds.13 mph54%29.68 "HgN/A
3:30 PM79 °FSunny.20 mph45%29.68 "Hg10 mi
3:00 PM79 °FSunny.20 mph48%29.68 "Hg10 mi
Weather by CustomWeather, © 2016

See weather overviewHow to use our weather pages